Location: Ferchesar
(52.6477°N, 12.4298°E)
Time: 00:50:27
(UTC+01:00)

Transit 2A Rocket - Pass Details

Date: 12 December 2021
Orbit: 584 x 918 km, 66.7° (Epoch: 21 January)

Event Time Altitude Azimuth Distance (km) Brightness Sun altitude
Rises 06:48:14 0° 225° (SW) 3,398 8.1 -11.8°
Reaches altitude 10° 06:50:39 10° 228° (SW) 2,505 7.4 -11.5°
Maximum altitude 06:56:31 72° 313° (NW) 948 5.3 -10.7°
Drops below altitude 10° 07:02:41 10° 38° (NE) 2,621 7.9 -9.8°
Sets 07:05:15 0° 41° (NE) 3,566 8.7 -9.5°
